{"data":{"norad_id":53626,"epoch":"2026-05-25T00:31:25.188384Z","epoch_age_seconds":73089,"freshness":"FRESH","line1":"1 53626U 22104AQ  26145.02181931  .00000455  00000+0  46685-4 0  9990","line2":"2 53626  53.2145 251.0886 0001136 117.2257 242.8851 15.08842464207281","mean_motion":15.08842464,"eccentricity":0.0001136,"inclination_deg":53.2145,"raan_deg":251.0886,"arg_perigee_deg":117.2257,"mean_anomaly_deg":242.8851,"bstar":4.6685e-5,"rev_number":20728,"period_min":95.437398824428,"perigee_km":538.94998715548,"apogee_km":540.5217278687,"semimajor_km":6917.8728575121,"source":"CELESTRAK","updated_at":"2026-05-25T13:38:17.480200Z"}}